Regional Weather Roundup
Issued by NWS Albany, NY

Home | Current Version | Previous Version | Text Only | Print | Product List | Glossary On
Versions: 1 2 3 4 5 6 7 8 9 10 11 12 13 14 15 16 17 18 19 20 21 22 23 24 25 26 27 28 29 30 31 32 33 34 35 36 37 38 39 40 41 42 43 44 45 46 47 48
000
ASUS41 KALY 242210
RWRALY

NEW YORK STATE HOURLY WEATHER ROUNDUP
NATIONAL WEATHER SERVICE ALBANY NY
500 PM EST WED DEC 24 2014

NOTE: "FAIR" INDICATES FEW OR NO CLOUDS BELOW 12,000 FEET WITH NO
SIGNIFICANT WEATHER AND/OR NO OBSTRUCTIONS TO VISIBILITY.

NYZ032-033-038>043-046>054-057>066-NYZ062>081-242300-
EAST


CITY           SKY/WX    TMP DP  RH WIND       PRES   REMARKS
ALBANY         LGT RAIN  46  43  89 S7        29.68F
GLENS FALLS    RAIN      38  37  97 CALM      29.69F FOG
POUGHKEEPSIE   LGT RAIN  47  45  93 CALM      29.69F FOG
NEWBURGH       DRIZZLE   46  46 100 E6        29.69F FOG
MONTGOMERY     RAIN      46  45  96 NE5       29.66F FOG
WHITE PLAINS   RAIN      49  48  97 E7        29.68F VSB 1/4
ISLIP          FOG       57  56  96 S12G22    29.70F VSB 1/4
NEW YORK CITY  RAIN      45  45 100 NE9       29.69F VSB 1/2
CENTRAL PARK   LGT RAIN  47  47 100 E3        29.71F FOG
$$

NYZ005>009-017-018-044>046-055-056-242300-
CENTRAL


CITY           SKY/WX    TMP DP  RH WIND       PRES   REMARKS
FULTON         CLOUDY    47  44  90 SE7       29.51F
SYRACUSE       DRIZZLE   46  46 100 E12       29.52F
ROME           HVY RAIN  46  45  96 SE9       29.60F FOG
ELMIRA         LGT RAIN  51  49  92 CALM      29.53F
BINGHAMTON     LGT RAIN  47  47 100 SE9       29.56F VSB 1/2
MONTICELLO     CLOUDY    45  45 100 E8        29.66F
$$

NYZ026>034-041>043-242300-
NORTH


CITY           SKY/WX    TMP DP  RH WIND       PRES   REMARKS
WATERTOWN      CLOUDY    55  46  71 S10G21    29.48F
FORT DRUM      NOT AVBL
MASSENA        FOG       38  37  97 NE3       29.55F VSB 1/2
SARANAC LAKE   LGT RAIN  39  39 100 CALM      29.56F FOG
PLATTSBURGH    LGT RAIN  41  40  96 SE17      29.63F
$$

NYZ001>004-010>016-019>021-242300-
WEST


CITY           SKY/WX    TMP DP  RH WIND       PRES   REMARKS
NIAGARA FALLS  CLOUDY    52  47  83 SE5       29.38S
BUFFALO        CLOUDY    54  48  80 S8        29.40F
DUNKIRK        CLOUDY    56  49  77 S21G29    29.39F
JAMESTOWN      CLOUDY    50  46  87 S8        29.44R
WELLSVILLE     CLOUDY    48  45  89 S13G21    29.44F
ROCHESTER      CLOUDY    54  48  80 SE10      29.41F
PENN YAN       CLOUDY    52  47  83 S5        29.49F
$$

             KEY
       WCI = WIND CHILL INDEX
       VSB = VISIBILITY
       HX  = HEAT INDEX
$$


USA.gov is the U.S. government's official web portal to all federal, state and local government web resources and services.